STARLINK-1274, 45387

Orbit data source: Space-Track

STARLINK-1274, 45387 is a payload satellite owned by SpaceX/Seattle (US) in LEO that was launched on Wed, 18 Mar 2020 UTC via an FALCON 9 launch vehicle from the Air Force Eastern Test Range (AFETR). Payload-class satellites include a variety of spacecraft equipped with specific instruments for various scientific and technological missions. These include communications satellites like Starlink; space stations such as the ISS; scientific satellites like the Hubble; Earth observation satellites from companies like Planet Labs, Umbra, and HawkEye 360; GPS; miniature CubeSats for education and research; and military/defense satellites.

Loading next visibility...
Identifier
45387, 2020-019AD
Orbit
LEO
Country
Flag of USUS
Related business
Manufacturer
SpaceX/Seattle
Mission
Partially operational Commercial Communications
Bus & Motor
STARLINK, Unknown motor
Mass
260 kg wet, ~248 kg dry
Launch date (UTC)
2020-03-18 (7 years ago)
Launch vehicle
FALCON 9
Launch site
Air Force Eastern Test Range (AFETR)
Object type
Payload
Rocket body
Debris
Shape & HBR
Box + 1 Pan, 10.1 m
Radar Cross Section
13.562 m², Large (>1 m²)

Expand to show TLE details & history
Last TLE update: 6 hours ago

TLE from 6 hours ago
0 STARLINK-1274
1 45387U 20019AD  26264.00002315  .00116015  00000-0  42948-3 0  9994
2 45387  53.0068 224.3909 0007125  87.3543 249.0503 15.87281372  6019
Epoch: 2026-09-21T00:00Z
TLE epoch observation values (Epoch: 2026-09-21T00:00:02.000Z)
Latitude
-18.8855°
Longitude
-150.35231°
Altitude
316.811 km
Speed
7.717 km/s
True Right ascension
13h 58m 10s
True Declination
-18° 46' 25"
Sunlit
Object was in daylight at epoch
Visualization orbit readout
Latitude
Unknown
Longitude
Unknown
Altitude
Unknown
Speed
Unknown
Apparent Right ascension
Unknown
Apparent Declination
Unknown
Sunlit
N/A
Visualization observer readout
Local Sidereal Time
23:13:40
Azimuth
Unknown
Elevation
Unknown
Doppler factor
Unknown
Orbital elements
Apogee altitude
314.962 km
Perigee altitude
305.431 km
Semi-major axis
6,688.334 km
Eccentricity
0.00071
Inclination
53.0068°
RAAN
224.3909°
Arg. of periapsis
87.3543°
True anomaly
248.97408°
Mean anomaly
249.0503°
Eccentric anomaly
249.01219°
Mean motion
3.96795 °/min
Orbital period
90.73 mins
BSTAR
0.00042948
Loading maneuver chart data...
Computing Atmospheric mass density...

Documentation

Showing up to 5 results
|